Location: Castle Hill Houses
(40.8186°N, 73.8497°W)
Time: 00:56:16
(UTC+00:00)

STARLINK-60 - Pass Details

Date: 26 January 2020
Orbit: 406 x 415 km, 53.0° (Epoch: 22 February)

Event Time Altitude Azimuth Distance (km) Brightness Sun altitude
Exits shadow 10:30:18 49° 348° (NNW) 555 3.4 -19.1°
Maximum altitude 10:30:55 60° 36° (NE) 488 3.4 -19.0°
Drops below altitude 10° 10:34:16 10° 117° (ESE) 1,503 7.0 -18.4°
Sets 10:36:22 0° 121° (ESE) 2,366 8.1 -18.0°
